カタログに戻る

STARLINK-33757

運用中通信VLEO
NORAD 63720·PAYLOAD·🇺🇸 United States

打ち上げ Apr 28, 2025 から Vandenberg Space Force Base

Loading…

次のパス (今後24時間)

TLE

最新Source: CelesTrak SupGP

元期: Sep 14, 2026, 20:55 UTC

1 63720C 25087Z   26257.87201389  .00028798  00000+0  85114-3 0  2572
2 63720  53.1602  59.7812 0001246  80.3326 111.0113 15.34365328    13

AllMySatでSTARLINK-33757をリアルタイム追跡

Download on the App Store